Погода в Помосъяле

Россия / Республика Марий Эл     56°52′43″N   49°23′57″E
темп.,
°C
ветер,
м/с
пор.,
м/с
влажн.,
%
обл.,
%
осадки,
мм/ч
давл.,
гПа
погр.,
м
14 июня, пн
пн1400:00+15ю499295 0.0 1013170
03:00+15ю379540 0.0 1013127
06:00+17ю478890 0.0 1014239
09:00+22ююз46715 0.0 1014755
12:00+25юз5756100 0.0 10141911
15:00+25зюз4656100 0.1 10141812
18:00+21юз3577100 0.4 1014112
21:00+18юз3383100 0.5 101429
15 июня, вт
вт1500:00+17зюз2291100 0.1 101438
03:00+16зюз229056 0.1 101415
06:00+19з117845 0.0 1015120
09:00+23ююв226131 0.9 1014506
12:00+25ююв3352100 0.0 10141545
15:00+24ю3360100 0.0 1013763
18:00+23ю3473100 0.0 1013316
21:00+18ю359167 0.6 101372
16 июня, ср
ср1600:00+17ю229350 0.0 101237
03:00+15ююв22935 0.0 101225
06:00+19вюв358613 0.0 1011196
09:00+23вюв566789 0.0 1009550
12:00+27юв575346 0.0 10071171
15:00+27ю565246 0.0 10051666
18:00+22зсз4678100 2.1 1004152
21:00+17сз51295100 6.4 1008608
17 июня, чт
чт1700:00+14ссз715905 0.0 1009583
03:00+11сз5149445 0.0 1012437
06:00+13сз6128577 0.0 1013585
09:00+17ссз710632 0.0 10151262
12:00+19ссз78463 0.0 10161909
15:00+20ссз68455 0.0 10172296
18:00+18сз486243 0.0 1018404
21:00+14ссз411635 0.0 1020273
18 июня, пт
пт1800:00+11ссз37745 0.0 102196
03:00+10ссз33765 0.0 102243
06:00+14ссз35693 0.0 1023207
09:00+18ссз46573 0.0 10231113
12:00+20сз56490 0.0 10231579
15:00+21сз56455 0.0 10231603
18:00+20з356159 0.0 1022254
21:00+16з377871 0.0 1022105